Weather History for PAWI - May, 2014

Change the Weather History Date:

Friday, May 9, 2014

  Actual Average (PABR) Record (PABR)
Temperature  
Mean Temperature 24 °F 17 °F  
Max Temperature 32 °F 22 °F 36 °F (1968)
Min Temperature 15 °F 12 °F -12 °F (2001)
Degree Days  
Heating Degree Days 42 48  
Month to date heating degree days 452  
Since 1 July heating degree days 17599  
Cooling Degree Days 0    
Month to date cooling degree days  
Year to date cooling degree days  
Moisture  
Dew Point 17 °F    
Average Humidity 80    
Maximum Humidity 85    
Minimum Humidity 75    
Precipitation  
Precipitation 0.00 in 0.00 in 0.09 in (1954)
Month to date precipitation 0.04  
Year to date precipitation 0.56  
Snow  
Snow 0.00 in 0.10 in 1.20 in (1938)
Month to date snowfall 0.9  
Since 1 July snowfall 35.2  
Snow Depth -    
Sea Level Pressure  
Sea Level Pressure 30.08 in    
Wind  
Wind Speed 11 mph (East)    
Max Wind Speed 17 mph    
Max Gust Speed -    
Visibility 10 miles    
Events      
T = Trace of Precipitation, MM = Missing Value Source: NWS Daily Summary

Daily Weather History Graph

Daily Weather History Graph

Search for Another Location

Airport or City:

Trip Planner

Search our weather history database for the weather conditions in past years. The results will help you decide how hot, cold, wet, or windy it might be!

Date:

Astronomy

May. 09, 2014 Rise Set
Actual Time 3:57 AM AKDT 1:24 AM AKDT
Civil Twilight Sun does not rise Sun does not rise
Nautical Twilight Sun does not rise Sun does not rise
Astronomical Twilight Sun does not rise Sun does not rise
Moon 4:48 PM AKDT (5/9) 4:57 AM AKDT (5/9)
Length of Visible Light 24h 00m
Length of Day
21h 27m
Waxing Gibbous, 75% of the Moon is Illuminated
May 9
Waxing Gibbous
May 14
Full
May 21
Last Quarter
May 28
New
Jun 5
First Quarter

Hourly Weather History & Observations

Time (AKDT) Temp. Windchill Dew Point Humidity Pressure Visibility Wind Dir Wind Speed Gust Speed Precip Events Conditions
12:53 AM 17.1 °F 5.8 °F 12.9 °F 84% 30.07 in 10.0 mi ENE 9.2 mph - N/A   Clear
1:53 AM 15.1 °F 3.3 °F 10.9 °F 84% 30.08 in 10.0 mi NE 9.2 mph - N/A   Clear
2:53 AM 16.0 °F 3.6 °F 10.9 °F 81% 30.07 in 10.0 mi ENE 10.4 mph - N/A   Clear
3:53 AM 15.1 °F 1.1 °F 10.9 °F 84% 30.08 in 10.0 mi ENE 12.7 mph - N/A   Clear
4:53 AM 15.1 °F 1.8 °F 10.9 °F 84% 30.08 in 10.0 mi ENE 11.5 mph - N/A   Clear
5:53 AM 15.1 °F 1.8 °F 10.9 °F 84% 30.08 in 10.0 mi ENE 11.5 mph - N/A   Clear
6:53 AM 16.0 °F 2.3 °F 12.0 °F 84% 30.08 in 10.0 mi East 12.7 mph - N/A   Clear
7:53 AM 17.1 °F 4.3 °F 12.0 °F 81% 30.09 in 10.0 mi East 11.5 mph - N/A   Clear
8:53 AM 17.1 °F 3.6 °F 12.0 °F 81% 30.09 in 10.0 mi East 12.7 mph - N/A   Clear
9:53 AM 18.0 °F 4.8 °F 12.0 °F 78% 30.09 in 10.0 mi ESE 12.7 mph - N/A   Clear
10:53 AM 18.0 °F 5.4 °F 12.9 °F 81% 30.09 in 10.0 mi SE 11.5 mph - N/A   Clear
11:53 AM 19.9 °F 8.6 °F 14.0 °F 78% 30.10 in 10.0 mi ESE 10.4 mph - N/A   Clear
12:53 PM 21.9 °F 11.0 °F 15.1 °F 75% 30.11 in 10.0 mi ESE 10.4 mph - N/A   Clear
1:26 PM 23.0 °F 13.1 °F 17.6 °F 80% 30.11 in 7.0 mi ESE 9.2 mph - N/A   Partly Cloudy
1:53 PM 25.0 °F 16.3 °F 18.0 °F 75% 30.11 in 10.0 mi ESE 8.1 mph - N/A   Clear
2:53 PM 27.0 °F 18.0 °F 19.9 °F 75% 30.11 in 10.0 mi ESE 9.2 mph - N/A   Clear
3:53 PM 28.9 °F 19.2 °F 21.9 °F 75% 30.10 in 10.0 mi ESE 11.5 mph - N/A   Clear
4:53 PM 30.0 °F 20.5 °F 24.1 °F 79% 30.10 in 10.0 mi ESE 11.5 mph - N/A   Clear
5:53 PM 32.0 °F 23.0 °F 25.0 °F 75% 30.09 in 9.0 mi ESE 11.5 mph - N/A   Clear
6:15 PM 32.0 °F 22.5 °F 24.8 °F 75% 30.08 in 3.0 mi East 12.7 mph - N/A   Haze
7:53 PM 30.9 °F 21.7 °F 26.1 °F 82% 30.07 in 10.0 mi East 11.5 mph - N/A   Clear
8:53 PM 32.0 °F 21.6 °F 26.1 °F 79% 30.05 in 10.0 mi East 15.0 mph - N/A   Clear
9:53 PM 30.9 °F 20.2 °F 26.1 °F 82% 30.04 in 10.0 mi East 15.0 mph - N/A   Mostly Cloudy
10:53 PM 28.9 °F 17.7 °F 25.0 °F 85% 30.03 in 10.0 mi East 15.0 mph - N/A   Partly Cloudy
11:53 PM 30.0 °F 18.3 °F 25.0 °F 82% 30.02 in 10.0 mi East 17.3 mph - N/A   Overcast